Location: ??
(35.5052°N, 139.7262°E)
Time: 03:49:24
(UTC+00:00)

Cosmos 2233 Rocket - Pass Details

Date: 20 June 2021
Orbit: 953 x 990 km, 82.9° (Epoch: 26 July)

Event Time Altitude Azimuth Distance (km) Brightness Sun altitude
Rises 12:53:01 0° 353° (N) 3,641 8.1 -25.6°
Reaches altitude 10° 12:55:30 10° 353° (N) 2,694 7.2 -25.8°
Maximum altitude 13:01:41 87° 267° (W) 968 3.9 -26.4°
Enters shadow 13:02:41 65° 182° (S) 1,051 3.8 -26.5°
